This is the latest recevied weather packets stored in our database for station/object N5DGC. If no packets are shown the sender has not sent any weather packets the latest 10 day(s).
| Time | Temp. | Humidity | Pressure | Rain* | Wind** | Luminosity | Snow |
|---|---|---|---|---|---|---|---|
| 1777848028 | 25.56° C | 17% | 1234.7 hPa | 0 mm | - | 581 W/m² | - |
| 1777847726 | 25° C | 17% | 1234.6 hPa | 0 mm | - | 598 W/m² | - |
| 1777847421 | 26.11° C | 17% | 1234.6 hPa | 0 mm | - | 613 W/m² | - |
| 1777847120 | 26.11° C | 17% | 1234.9 hPa | 0 mm | - | 632 W/m² | - |
| 1777846818 | 25.56° C | 17% | 1234.8 hPa | 0 mm | - | 645 W/m² | - |
| 1777846516 | 25.56° C | 18% | 1234.9 hPa | 0 mm | - | 660 W/m² | - |
| 1777846213 | 24.44° C | 21% | 1235.2 hPa | 0 mm | - | 671 W/m² | - |
| 1777845909 | 24.44° C | 21% | 1235.2 hPa | 0 mm | - | 688 W/m² | - |
| 1777845606 | 24.44° C | 21% | 1235.5 hPa | 0 mm | - | 701 W/m² | - |
| 1777845303 | 24.44° C | 22% | 1235.4 hPa | 0 mm | - | 711 W/m² | - |
| 1777845000 | 24.44° C | 20% | 1235.5 hPa | 0 mm | - | 725 W/m² | - |
| 1777844698 | 25° C | 20% | 1235.5 hPa | 0 mm | - | 742 W/m² | - |
| 1777844394 | 24.44° C | 22% | 1235.8 hPa | 0 mm | - | 754 W/m² | - |
| 1777844093 | 23.89° C | 21% | 1235.8 hPa | 0 mm | - | 762 W/m² | - |
| 1777843789 | 23.89° C | 23% | 1236.1 hPa | 0 mm | - | 775 W/m² | - |
| 1777843487 | 23.89° C | 23% | 1236.1 hPa | 0 mm | - | 792 W/m² | - |
| 1777843184 | 24.44° C | 22% | 1236.2 hPa | 0 mm | - | 802 W/m² | - |
| 1777842881 | 23.89° C | 22% | 1236.1 hPa | 0 mm | - | 822 W/m² | - |
| 1777842576 | 23.89° C | 23% | 1236.5 hPa | 0 mm | - | 844 W/m² | - |
| 1777842273 | 23.33° C | 22% | 1236.5 hPa | 0 mm | - | 865 W/m² | - |
| 1777841968 | 23.33° C | 23% | 1236.6 hPa | 0 mm | - | 879 W/m² | - |
| 1777841665 | 23.33° C | 23% | 1236.7 hPa | 0 mm | - | 893 W/m² | - |
| 1777841361 | 23.89° C | 22% | 1236.8 hPa | 0 mm | - | 906 W/m² | - |
| 1777841059 | 23.33° C | 23% | 1236.8 hPa | 0 mm | - | 917 W/m² | - |
| 1777840756 | 23.33° C | 24% | 1237.2 hPa | 0 mm | - | 927 W/m² | - |
* Rain latest hour (hover to see other rain measurements)
** Current wind speed in m/s (hover to see current wind gust speed)